7 * 24
多渠道服务支持
STARLINK-36474是美国SpaceX星链计划中的卫星,于2026年1月9日发射升空,属于Starlink低轨卫星星座组成部分。星链计划旨在构建全球卫星互联网系统,为全球偏远地区等提供高速网络服务,该卫星的发射进一步扩充了星链星座的规模,助力全球网络覆盖能力提升。
美国
(US)
| 数据来源 | 国际轨道数据 |
| 星历时间: | 2026-09-11T10:08:19+0800 17小时前 查看轨道信息 |
| 半长轴: | 6861.159km |
| 偏心率: | 0.0002834 |
| 轨道倾角: | 43.000° |
| 近地点辐角 | 167.917° |
| 升交点赤经 | 260.437° |
| 平近点角 | 192.175° |
| 近地点: | 481.077km |
| 远地点: | 484.967km |
| 周期: | 94.266分钟 |
| 每日圈数: | 15.275893 |